Retour au catalogue

NETSAT-2

ActifSciencePO
NORAD 46507·PAYLOAD·🇩🇪 Germany

Lancé Sep 28, 2020 depuis Plesetsk Cosmodrome

Loading…

Prochains Passages (prochaines 24 heures)

TLE

FraisSource: Space-Track

Époque: Sep 14, 2026, 12:16 UTC

1 46507U 20068X   26257.51126758  .00017334  00000-0  31671-3 0  9994
2 46507  97.8610 273.4050 0004762  55.2499 304.9199 15.49460456329552

Suivez NETSAT-2 en temps réel avec AllMySat

Download on the App Store